Regional Weather Roundup
Issued by NWS

Home | Current Version | Previous Version | Text Only | Print | Product List | Glossary Off
Versions: 1 2 3 4 5 6 7 8 9 10 11 12 13 14 15 16 17 18 19 20 21 22 23 24 25 26 27 28 29 30 31 32 33 34 35 36 37 38 39 40

000
ASUS45 KBOI 210710
RWRID
WEATHER ROUNDUP FOR IDAHO
NATIONAL WEATHER SERVICE BOISE ID
100 AM MDT TUE OCT 21 2014

NOTE: "FAIR" INDICATES FEW OR NO CLOUDS BELOW 12000 FEET
WITH NO SIGNIFICANT WEATHER AND/OR OBSTRUCTIONS TO VISIBILITY

IDZ012-014-210800-
SOUTHWEST IDAHO


CITY           SKY/WX    TMP DP  RH WIND       PRES   REMARKS
BOISE          LGT RAIN  57  43  59 N15       29.83R
CALDWELL       CLOUDY    57  39  51 NW16      29.84R
MOUNTAIN HOME  LGT RAIN  62  41  46 NW37G44   29.73R
$$

IDZ016-017-210800-
SOUTHCENTRAL IDAHO


CITY           SKY/WX    TMP DP  RH WIND       PRES   REMARKS
BURLEY         MOCLDY    66  36  32 S13       29.77S
JEROME         LGT RAIN  62  37  39 E9        29.75F
TWIN FALLS     CLOUDY    68  34  28 S12G23    29.75F
$$

IDZ019>023-210800-
SOUTHEAST IDAHO


CITY           SKY/WX    TMP DP  RH WIND       PRES   REMARKS
IDAHO FALLS    MOCLDY    48  37  65 SW8       29.87S
POCATELLO      LGT RAIN  67  34  29 S15G21    29.82F
REXBURG        CLEAR     44  35  70 CALM      29.86F
$$

IDZ006-010-011-018-031-032-210800-
CENTRAL IDAHO MOUNTAINS


CITY           SKY/WX    TMP DP  RH WIND       PRES   REMARKS
MCCALL         CLOUDY    45  34  65 CALM      29.78R
HAILEY         LGT RAIN  57  41  54 W5        29.85F
STANLEY          N/A     44  37  76 SE3       29.86F
SALMON         MOCLDY    61  37  41 S10       29.76R
CHALLIS        PTCLDY    50  41  71 NW6       29.81F
$$

IDZ002-004-006-007-026-210800-
NORTHERN IDAHO


CITY           SKY/WX    TMP DP  RH WIND       PRES   REMARKS
LEWISTON       CLOUDY    56  44  64 NE6       29.85F
LOWELL           N/A     54  49  83 CALM      29.84R
COEUR D`ALENE  CLOUDY    54  43  66 W10G20    29.83R
MULLAN PASS    FOG       41  41 100 CALM      29.87R VSB 1/4
$$



USA.gov is the U.S. government's official web portal to all federal, state and local government web resources and services.